CZ-6A DEB, 54320

Orbit data source: Space-Track

CZ-6A DEB, 54320 is space debris in SSO originally from a launch on Fri, 11 Nov 2022 UTC launched from the Taiyaun Space Center, China (TSC). Debris objects in space refer to the collection of defunct objects orbiting the Earth. Examples of debris include non-operational satellites, rocket bodies, and fragments generated from explosions, collisions, or faulty payload assembly.

Loading next visibility...
Identifier
54320, 2022-151BP
Orbit
SSO
Country
Flag of CNCN / PRC
Related business
Manufacturer
SAST
Mission
Spacecraft
Bus & Motor
Unknown
Mass
Unknown
Launch date (UTC)
2022-11-11 (3 years ago)
Launch vehicle
Unknown
Launch site
Taiyaun Space Center, China (TSC)
Object type
Payload
Rocket body
Debris
Shape & HBR
Unknown shape, 0.2 m
Radar Cross Section
Small (<0.1 m²)

Expand to show TLE details & history
Last TLE update: 17 hours ago

TLE from 17 hours ago
0 CZ-6A DEB
1 54320U 22151BP  25350.16427170  .00000338  00000-0  27327-3 0  9996
2 54320  98.9297 323.3102 0133038 201.1866 158.3754 13.92859381156684
Epoch: 2025-12-16T03:56Z
TLE epoch observation values (Epoch: 2025-12-16T03:56:33.074Z)
Latitude
-0.00004°
Longitude
179.11998°
Altitude
1,011.93 km
Speed
7.3 km/s
True Right ascension
21h 33m 14s
True Declination
0° 00' 00"
Sunlit
Object was in daylight at epoch
Visualization orbit readout
Latitude
Unknown
Longitude
Unknown
Altitude
Unknown
Speed
Unknown
Apparent Right ascension
Unknown
Apparent Declination
Unknown
Sunlit
N/A
Visualization observer readout
Local Sidereal Time
19:42:27
Azimuth
Unknown
Elevation
Unknown
Doppler factor
Unknown
Orbital elements
Apogee altitude
1,012.87 km
Perigee altitude
818.795 km
Semi-major axis
7,293.969 km
Eccentricity
0.0133
Inclination
98.9297°
RAAN
323.3102°
Arg. of periapsis
201.1866°
True anomaly
158.92865°
Mean anomaly
158.3754°
Eccentric anomaly
158.65287°
Mean motion
3.48415 °/min
Orbital period
103.32 mins
BSTAR
0.00027327
Loading maneuver chart data...
Computing Atmospheric mass density...
Loading historical data...
Loading historical data...
Loading historical data...
Loading historical data...
Loading historical data...
Loading historical data...
Loading historical data...

Documentation

Showing up to 5 results
|